Weather History for KFDR - June, 2014

Change the Weather History Date:

Wednesday, June 25, 2014

  Actual Average (KLTS) Record (KLTS)
Temperature  
Mean Temperature 78 °F -  
Max Temperature 91 °F 89 °F 109 °F (2011)
Min Temperature 66 °F 68 °F 65 °F (2014)
Cooling Degree Days 14    
Growing Degree Days 28 (Base 50)    
Moisture  
Dew Point 68 °F    
Average Humidity 76    
Maximum Humidity 97    
Minimum Humidity 48    
Precipitation  
Precipitation 0.00 in - - ()
Sea Level Pressure  
Sea Level Pressure 29.94 in    
Wind  
Wind Speed 7 mph (SE)    
Max Wind Speed 13 mph    
Max Gust Speed -    
Visibility 10 miles    
Events Thunderstorm    
Averages and records for this station are not official NWS values.
T = Trace of Precipitation, MM = Missing Value Source: NWS Daily Summary

Daily Weather History Graph

Daily Weather History Graph

Search for Another Location

Airport or City:

Trip Planner

Search our weather history database for the weather conditions in past years. The results will help you decide how hot, cold, wet, or windy it might be!

Date:

Astronomy

Jun. 25, 2014 Rise Set
Actual Time 6:25 AM CDT 8:51 PM CDT
Civil Twilight 5:55 AM CDT 9:21 PM CDT
Nautical Twilight 5:19 AM CDT 9:57 PM CDT
Astronomical Twilight 4:39 AM CDT 10:37 PM CDT
Moon 5:13 AM CDT (6/25) 7:29 PM CDT (6/25)
Length of Visible Light 15h 25m
Length of Day
14h 26m
Waning Crescent, 3% of the Moon is Illuminated
Jun 25
Waning Crescent
Jun 27
New
Jul 5
First Quarter
Jul 12
Full
Jul 18
Last Quarter

Hourly Weather History & Observations

Time (CDT) Temp. Heat Index Dew Point Humidity Pressure Visibility Wind Dir Wind Speed Gust Speed Precip Events Conditions
12:53 AM 68.0 °F - 64.9 °F 90% 29.98 in 10.0 mi East 6.9 mph - N/A   Clear
1:53 AM 68.0 °F - 66.0 °F 93% 29.99 in 10.0 mi NE 6.9 mph - N/A   Clear
2:53 AM 66.9 °F - 66.0 °F 97% 29.99 in 10.0 mi North 4.6 mph - N/A   Clear
3:53 AM 66.9 °F - 64.9 °F 93% 29.98 in 10.0 mi NNW 5.8 mph - N/A   Clear
4:53 AM 66.0 °F - 64.9 °F 96% 29.95 in 10.0 mi SSE 5.8 mph - N/A   Clear
5:53 AM 66.9 °F - 66.0 °F 97% 29.95 in 10.0 mi SE 8.1 mph - N/A   Clear
6:53 AM 68.0 °F - 66.0 °F 93% 29.95 in 10.0 mi South 11.5 mph - N/A   Clear
7:53 AM 69.1 °F - 66.9 °F 93% 30.00 in 10.0 mi NNW 5.8 mph - N/A   Mostly Cloudy
8:53 AM 70.0 °F - 66.9 °F 90% 30.02 in 10.0 mi Calm Calm - N/A   Clear
9:53 AM 72.0 °F - 66.9 °F 84% 30.01 in 10.0 mi SSE 4.6 mph - N/A   Mostly Cloudy
10:53 AM 77.0 °F - 68.0 °F 74% 29.96 in 10.0 mi SSE 9.2 mph - N/A   Clear
11:53 AM 81.0 °F 84.1 °F 69.1 °F 67% 29.94 in 10.0 mi SE 12.7 mph - N/A   Clear
12:53 PM 82.9 °F 86.5 °F 69.1 °F 63% 29.95 in 10.0 mi Variable 5.8 mph - N/A   Clear
1:53 PM 84.0 °F 88.4 °F 70.0 °F 63% 29.94 in 10.0 mi SSW 9.2 mph - N/A   Clear
3:13 PM 86.0 °F 91.8 °F 71.6 °F 62% 29.96 in 10.0 mi South 6.9 mph - N/A   Partly Cloudy
3:53 PM 87.1 °F 92.8 °F 71.1 °F 59% 29.90 in 10.0 mi Calm Calm - N/A   Scattered Clouds
4:53 PM 91.0 °F 98.2 °F 72.0 °F 53% 29.86 in 10.0 mi South 5.8 mph - N/A   Partly Cloudy
5:15 PM 91.4 °F 96.8 °F 69.8 °F 49% 29.90 in 10.0 mi SSE 8.1 mph - N/A Thunderstorm Partly Cloudy
5:30 PM 89.6 °F 94.7 °F 69.8 °F 52% 29.89 in 10.0 mi South 10.4 mph - N/A   Scattered Clouds
5:53 PM 90.0 °F 95.4 °F 70.0 °F 52% 29.84 in 10.0 mi SE 6.9 mph - N/A   Partly Cloudy
6:53 PM 90.0 °F 93.6 °F 68.0 °F 48% 29.84 in 10.0 mi SE 10.4 mph - N/A   Clear
9:53 PM 73.9 °F - 66.9 °F 79% 29.90 in 10.0 mi SE 5.8 mph - N/A   Clear
10:53 PM 73.0 °F - 68.0 °F 84% 29.92 in 10.0 mi SSE 4.6 mph - N/A   Clear
11:53 PM 71.1 °F - 69.1 °F 93% 29.91 in 10.0 mi ESE 6.9 mph - N/A   Clear